Charter Quote
Worldwide +1-877-727-2538 Call
Select Language Lang
SAFETY RELIABILITY EXPERIENCE

Lishe Private Jet Charter

Lishe Private Jet Charter Services

Paramount Business Jets offers private jet charter flights and luxury airliner charters to and from Lishe.

Lishe Charter Flight Price Estimates

Paramount Business Jets offers private jet charter flights and luxury airliner charters to and from Lishe.

AIRPORT INFORMATION
ICAOZSNB
LOCATIONNinbo, China
FACILITY TYPEAIRPORT

At Paramount Business Jets you can hire chartered private jets to and from Lishe with as little as 4 hours of notice. All flights booked via Paramount Business Jets are operated by certified direct air carriers that meet and exceed the FAA part 135 and 121 protocol or a foreign equivalent safety authority. Furthermore, Paramount Business Jets subscribes to ARGUS for their third party safety checks of operators, aircraft, and crews prior each and every flight to and from Lishe and worldwide.

  • Quote a trip using Lishe or call us 24/7 - 365 days a year at +1-877-727-2538.
Questions? Call +1-877-727-2538

METAR Weather Data at Lishe, ZSNB

STATIONZSNB
OBSERVEDMon Feb 24, 00:00 UTC
NOWMon Feb 24, 00:39 UTC
AGE39 min ago
WINDS at 7 mph
VISIBILITY11 miles
METARZSNB 240000Z 18003MPS 150V210 7000 NSC 13/07 Q1023 NOSIG

Top Private Jet Destinations Near Lishe

Call us on +1-877-727-2538 (24 Hours) to Hire a Private Jet or Get a Quick Quote.

Find Airports Near any Location

Processing
...